Find Gao Fen 12-02

NORAD ID: 48079 Int'l Des: 2021-026 Owner: ZLZB Country: CN operational
LEOCIRCULARRETROGRADESSO

現在のビュー

3D地球を読み込み中...

Gao Fen 12-02について

説明を読み込み中...

次回通過

Passes for default location (London). Set your location on the main map for personalized predictions.

高度履歴

Loading altitude history...

軌道要素

1 48079U 21026A 26149.63720074 .00000477 00000-0 69566-4 0 9994
2 48079 97.9919 147.8944 0003539 305.9371 54.1512 14.80279416279018
Epoch: May 29, 2026 • Age: 16 hours

現在のステータス

高度 652.4 km
速度 7.53 km/s
衛星直下点 -70.83°S, 176.57°E
打ち上げ日 Mar 30, 2021
運用期間 5.1 years
タイプ other

技術仕様

分類 Payload
質量 3000.00 kg
乾燥質量 3000.00 kg
総質量 3000.00 kg
長さ 2.00 m
直径 2.00 m
スパン 8.00 m
形状 Box + 3 Pan
製造者 SAST
バスタイプ CS-L3000B
フェーズステータス In Orbit
所有者/国 ZLZB/CN

Most Searched